Skip Page Navigation
NASA JPL Caltech
NASA Logo - Jet Propulsion Laboratory + View the NASA Portal
+ Near-Earth Object (NEO) Program
Search JPL
JPL Home Earth Solar System Stars & Galaxies Technology
JPL Solar System Dynamics
BODIES ORBITS EPHEMERIDES TOOLS PHYSICAL DATA DISCOVERY FAQ SITE MAP
JPL Small-Body Database Browser
Search: [ help ]  
9699 Baumhauer (3036 T-1)
Classification: Main-belt Asteroid          SPK-ID: 2009699
Ephemeris | Orbit Diagram | Orbital Elements | Physical Parameters | Discovery Circumstances ]

[ show orbit diagram ]
Orbital Elements at Epoch 2456400.5 (2013-Apr-18.0) TDB
Reference: MPO256936 (heliocentric ecliptic J2000)
 Element Value Uncertainty (1-sigma)   Units 
e 0.2213465 n/a  
a 2.6308760 n/a AU
q 2.0485408 n/a AU
i 11.69343 n/a deg
node 196.40798 n/a deg
peri 105.02729 n/a deg
M 214.83703 n/a deg
tp 2457028.9957412
(2015-Jan-06.49574120)
n/a JED
period 1558.6514029
4.27
n/a
n/a
d
yr
n 0.23096890 n/a deg/d
Q 3.2132112 n/a AU
  Orbit Determination Parameters
   # obs. used (total)      641  
   first obs. used      1971-??-??  
   last obs. used      2013-03-09  
   # oppositions      16  
   planetary ephem.      DE403  
   condition code      0  
   fit RMS      0.55  
   data source      MPC:mpn  
   producer      MPCLINUX  

Additional Information
 T_jup = 3.336 

Ephemeris | Orbit Diagram | Orbital Elements | Physical Parameters | Discovery Circumstances ]

Physical Parameter Table
Parameter Symbol Value Units Sigma Reference Notes
absolute magnitude H 13.3 mag n/a PDS3 (MPC 32913)  
rotation period rot_per 16.7 h n/a Asteroid Lightcurve DataBase (Rev. 2013-May-01) Result based on fragmentary lightcurve(s), may be completely wrong.
Published Reference List:
[Behrend, R. (2006) Observatoire de Geneve web site, http://obswww.unige.ch/~behrend/page_cou.html]

9699 Baumhauer           Discovered 1971 Mar. 26 by C. J. van Houten and I. van Houten-Groeneveld on Palomar Schmidt plates taken by T. Gehrels.
Albert Gillis von Baumhauer (1891-1939) invented the tail rotor for helicopters and built the first Dutch helicopter, which took off on 1925 Dec. 17. He was strongly involved in pioneering gliding in the Netherlands and was killed in the Boeing Stratoliner plane crash in 1939.
NOTE: some special characters may not display properly (any characters within {} are an attempt to place the proper accent above a character)
Reference: 20001111/MPCPages.arcLast Updated: 2013-03-29

Alternate Designations
 3036 T-1 = 1985 SU5 = 1985 UD6 
Ephemeris | Orbit Diagram | Orbital Elements | Physical Parameters | Discovery Circumstances ]
ABOUT SSD CREDITS/AWARDS PRIVACY/COPYRIGHT GLOSSARY LINKS
FirstGov 2013-May-26 08:19 UT
(server date/time)  
NASA Home Page
Site Manager:   Donald K. Yeomans
Webmaster  Alan B. Chamberlin